Location: ????
(30.2663°N, 31.2484°E)
Time: 03:31:22
(UTC+00:00)

YAOGAN 6 - Pass Details

Date: 27 September 2022
Orbit: 453 x 491 km, 97.1° (Epoch: 01 December)

Event Time Altitude Azimuth Distance (km) Brightness Sun altitude
Rises 03:07:53 0° 344° (NNW) 2,578 6.1 -9.1°
Reaches altitude 10° 03:11:14 10° 310° (NW) 1,687 4.9 -8.3°
Maximum altitude 03:12:28 11° 290° (WNW) 1,594 4.6 -8.1°
Drops below altitude 10° 03:13:41 10° 270° (W) 1,680 4.6 -7.8°
Enters shadow 03:13:43 10° 269° (W) 1,684 4.6 -7.8°
